星链-31412 (STARLINK-31412 )

导读 | 星芒AI

STARLINK-31412 是 SpaceX Starlink 卫星互联网项目中的一颗低轨卫星,属于其第二代卫星星座计划的一部分。该卫星于2024年发射,旨在为全球用户提供高速、低延迟的宽带互联网服务。它运行在约550公里高的近地轨道,配备先进通信设备,支持Ka/Ku波段传输。Starlink 项目通过大规模部署此类卫星,致力于改善偏远地区的网络接入,推动全球数字连接。

基本信息
目录编号:
59410
目录名称:
STARLINK-31412
国际标识:
2024-064N
轨道中心:
EARTH
卫星名称:
星链-31412
卫星全名:
星链-31412 (STARLINK-31412 )
卫星状态:
在轨 (已飞行575 天)
发射日期:
2024-04-05 UTC
国别 :
美国 (US)
星等 :
--
轨道信息
数据来源 国际轨道数据 AOE轨道数据
星历时间 2025-11-01T01:32:41+0800
10小时前
查看轨道信息
2025-10-26T08:00:00+0800
6天前
查看轨道信息
半长轴 6861.199km 6861.113km
偏心率 0.0001535 0.0001685
轨道倾角 43.004° 43.004°
近地点辐角 266.646° 290.716°
升交点赤经 64.422° 96.792°
平近点角 93.422° 195.834°
近地点 482.01km 481.821km
远地点 484.118km 484.135km
周期 94.267分钟 94.265分钟
每日圈数 15.275758 15.276047
详细信息
固有亮度:
5
最大亮度:
0.3
卫星平台:
Starlink v2.0 mini
覆盖范围:
全球
运营商:
太空探索技术公司
运营商所在国:
美国
制造商(研发单位):
太空探索技术公司
制造商所在国:
美国
使用方式:
暂无
卫星简介
星链(Starlink)计划是由太空探索技术公司(SpaceX)提出的一个巨型低轨卫星互联网星座项目,计划在2019年至2024年间在太空搭建由约1.2万颗卫星组成的“星链”网络,其中1584颗将部署在地球上空550千米处的近地轨道,并从2020年开始工作。该卫星仍在工作。
2D轨道图
3D轨道图
轨道高度分析图
轨道倾角分析图
轨道综合分析图
查看轨道综合分析图